This is the latest recevied weather packets stored in our database for station/object K3FAZ. If no packets are shown the sender has not sent any weather packets the latest 1 day(s).
| Time | Temp. | Humidity | Pressure | Rain* | Wind** | Luminosity | Snow |
|---|---|---|---|---|---|---|---|
| 1778058028 | 13.33° C | 97% | 1009.1 hPa | 3.05 mm | - | 0 W/m² | - |
| 1778057725 | 13.33° C | 97% | 1009.5 hPa | 3.05 mm | - | 0 W/m² | - |
| 1778056814 | 13.33° C | 97% | 1009.4 hPa | 3.05 mm | - | 0 W/m² | - |
| 1778056512 | 13.33° C | 97% | 1009.3 hPa | 3.05 mm | - | 0 W/m² | - |
| 1778055906 | 13.89° C | 97% | 1009.1 hPa | 0 mm | - | 0 W/m² | - |
| 1778054997 | 13.89° C | 97% | 1008.8 hPa | 0 mm | - | 0 W/m² | - |
| 1778054694 | 13.89° C | 97% | 1008.8 hPa | 0 mm | - | 0 W/m² | - |
| 1778054089 | 13.89° C | 97% | 1008.8 hPa | 0 mm | - | 0 W/m² | - |
| 1778052575 | 13.89° C | 96% | 1009.3 hPa | 0 mm | - | 0 W/m² | - |
| 1778052272 | 13.89° C | 95% | 1009.3 hPa | 0 mm | - | 0 W/m² | - |
| 1778051970 | 13.89° C | 95% | 1009.4 hPa | 0 mm | - | 0 W/m² | - |
| 1778051061 | 13.89° C | 93% | 1009.7 hPa | 1.27 mm | - | 0 W/m² | - |
| 1778050456 | 13.89° C | 93% | 1010 hPa | 1.78 mm | - | 0 W/m² | - |
| 1778049848 | 13.89° C | 94% | 1010.1 hPa | 0 mm | - | 0 W/m² | - |
| 1778049545 | 13.89° C | 94% | 1009.8 hPa | 1.27 mm | - | 0 W/m² | - |
| 1778049243 | 13.89° C | 94% | 1010.1 hPa | 1.27 mm | - | 0 W/m² | - |
| 1778048031 | 13.89° C | 96% | 1010.5 hPa | 1.27 mm | - | 0 W/m² | - |
| 1778047729 | 13.89° C | 96% | 1010.3 hPa | 0 mm | - | 0 W/m² | - |
| 1778047427 | 14.44° C | 96% | 1010.5 hPa | 1.78 mm | - | 0 W/m² | - |
| 1778047123 | 14.44° C | 96% | 1010.6 hPa | 1.78 mm | - | 0 W/m² | - |
| 1778045910 | 14.44° C | 93% | 1010.8 hPa | 1.78 mm | - | 0 W/m² | - |
| 1778045307 | 14.44° C | 92% | 1011.1 hPa | 1.27 mm | - | 0 W/m² | - |
| 1778044703 | 15° C | 90% | 1011.1 hPa | 1.78 mm | - | 0 W/m² | - |
| 1778044399 | 15° C | 89% | 1011.2 hPa | 0 mm | - | 0 W/m² | - |
| 1778042884 | 15.56° C | 83% | 1011.1 hPa | 0 mm | - | 0 W/m² | - |
* Rain latest hour (hover to see other rain measurements)
** Current wind speed in m/s (hover to see current wind gust speed)